TimeCDT,TemperatureF,Dew PointF,Humidity,Sea Level PressureIn,VisibilityMPH,Wind Direction,Wind SpeedMPH,Gust SpeedMPH,PrecipitationIn,Events,Conditions,WindDirDegrees,DateUTC
12:53 AM,66.9,64.9,93,29.81,10.0,SSE,9.2,-,N/A,,Clear,150,2013-06-25 05:53:00
1:53 AM,66.9,66.0,97,29.80,10.0,SSE,8.1,-,N/A,,Mostly Cloudy,150,2013-06-25 06:53:00
2:53 AM,66.9,66.9,100,29.80,10.0,ESE,5.8,-,N/A,,Mostly Cloudy,110,2013-06-25 07:53:00
3:53 AM,68.0,68.0,100,29.78,10.0,ESE,6.9,-,N/A,,Mostly Cloudy,120,2013-06-25 08:53:00
4:30 AM,69.8,69.8,100,29.81,10.0,South,9.2,-,0.00,Rain-Thunderstorm,Light Rain,180,2013-06-25 09:30:00
4:53 AM,71.1,70.0,96,29.78,10.0,South,12.7,-,0.05,Rain-Thunderstorm,Light Thunderstorms and Rain,190,2013-06-25 09:53:00
5:17 AM,71.6,68.0,88,29.78,8.0,WSW,4.6,-,0.02,Rain,Light Rain,240,2013-06-25 10:17:00
5:53 AM,69.1,66.9,93,29.78,10.0,WSW,3.5,-,0.03,,Clear,240,2013-06-25 10:53:00
6:53 AM,70.0,69.1,97,29.80,10.0,Calm,Calm,-,N/A,,Clear,0,2013-06-25 11:53:00
7:53 AM,70.0,70.0,100,29.82,10.0,ESE,6.9,-,N/A,,Clear,120,2013-06-25 12:53:00
8:53 AM,72.0,72.0,100,29.82,8.0,SE,10.4,-,N/A,,Partly Cloudy,130,2013-06-25 13:53:00
9:53 AM,73.9,72.0,93,29.82,10.0,SSE,9.2,-,N/A,,Mostly Cloudy,150,2013-06-25 14:53:00
10:53 AM,75.9,73.0,91,29.81,10.0,SSE,13.8,-,N/A,,Mostly Cloudy,160,2013-06-25 15:53:00
11:53 AM,80.1,73.9,81,29.77,10.0,SSE,10.4,-,N/A,,Clear,160,2013-06-25 16:53:00
12:53 PM,82.0,75.9,82,29.78,10.0,South,15.0,19.6,N/A,,Clear,180,2013-06-25 17:53:00
1:53 PM,82.0,73.0,74,29.78,10.0,SSW,15.0,-,N/A,,Clear,200,2013-06-25 18:53:00
2:53 PM,84.9,72.0,65,29.77,10.0,SSW,13.8,19.6,N/A,,Clear,200,2013-06-25 19:53:00
3:53 PM,84.9,72.0,65,29.76,10.0,SSW,11.5,17.3,N/A,,Clear,200,2013-06-25 20:53:00
4:53 PM,87.1,72.0,61,29.73,10.0,SSW,9.2,-,N/A,,Clear,200,2013-06-25 21:53:00
5:53 PM,84.9,72.0,65,29.73,10.0,South,8.1,-,N/A,,Clear,180,2013-06-25 22:53:00
6:53 PM,82.9,72.0,69,29.73,10.0,South,6.9,-,N/A,,Partly Cloudy,170,2013-06-25 23:53:00
7:53 PM,81.0,72.0,74,29.73,10.0,South,6.9,-,N/A,,Clear,170,2013-06-26 00:53:00
8:53 PM,80.1,72.0,76,29.73,10.0,SSE,8.1,-,N/A,,Scattered Clouds,150,2013-06-26 01:53:00
9:53 PM,79.0,73.9,84,29.73,10.0,SSE,10.4,-,N/A,,Mostly Cloudy,150,2013-06-26 02:53:00
10:53 PM,78.1,75.0,90,29.73,10.0,SSE,9.2,-,N/A,,Scattered Clouds,150,2013-06-26 03:53:00
11:53 PM,77.0,75.0,94,29.70,10.0,SSE,8.1,-,N/A,,Scattered Clouds,160,2013-06-26 04:53:00